sat.trackr.live / text

‹ back to catalog

STARLINK-34973

NORAD 65250 · 2025-179R

PAYLOAD ACTIVE UNKNOWN

§ Identity

Operator
Country
US
Launch date
2025-08-18
Launch site
AFWTR
Launch vehicle
Mass (kg)
RCS (m²)

Purposes: comms

External: N2YO · Heavens-Above · Gunter

§ Orbital elements

Epoch: 2026-09-20T14:25:48.556416Z

Period
93.91 min
Inclination
97.2860°
Eccentricity
0.0001074
Mean motion
15.33443652 rev/d
Perigee alt
464.8 km
Apogee alt
466.3 km
Semi-major
6,843.7 km
B*
3.6768e-4
RAAN
302.8569°
Arg perigee
42.0625°
Mean anomaly
318.0700°
Rev number
6,131

§ Raw data

STARLINK-349731 65250U 25179R   26263.60125644  .00011813  00000+0  36768-3 0  99952 65250  97.2860 302.8569 0001074  42.0625 318.0700 15.33443652 61312

JSON: /api/v1/satellites/65250 · /tle

For live sub-satellite position, see the globe view (requires WebGL).

§ Visibility from observer

Set your observer location to see the next 7 days of passes ≥ 10°. The values pass through the URL so the page stays shareable.

No JS? Fill the form by hand. The geolocation button needs JavaScript.